This demonstration page uses our WeatherBlox Daily Observations layout. Learn more.

40.92945, -100.16068

Hourly Observations for June 19, 2015

Temp ( °F °C ) Dew Point ( °F °C ) Humidity (%) Winds ( mph kmh ) Pressure ( in mb ) Visibility ( mi km ) Precip ( " mm )
12:15 am 00:15 Clear 62 16.5 59 15.1 92 92 E 5 7 30.06 1018 10 16.0934 N/A
12:35 am 00:35 Clear 60 15.7 58 14.6 93 93 SSE 3 6 30.06 1018 10 16.0934 N/A
12:55 am 00:55 Clear 60 15.5 58 14.4 93 93 SSW 5 7 30.06 1018 10 16.0934 N/A
1:15 am 01:15 Clear 59 15 57 14.1 94 94 S 3 6 30.06 1018 7 11.26538 N/A
1:35 am 01:35 Clear 59 15 57 14.1 94 94 S 3 6 30.06 1018 7 11.26538 N/A
1:55 am 01:55 Clear 60 15.5 58 14.7 95 95 Calm 30.06 1018 7 11.26538 N/A
2:15 am 02:15 Clear 59 15.1 58 14.3 95 95 Calm 30.06 1018 7 11.26538 N/A
2:35 am 02:35 Clear 58 14.7 57 14 96 96 SE 5 7 30.06 1018 10 16.0934 N/A
2:55 am 02:55 Clear 60 15.5 58 14.7 95 95 SE 5 7 30.03 1017 10 16.0934 N/A
3:15 am 03:15 Clear 58 14.4 56 13.3 93 93 ENE 3 6 30.03 1017 7 11.26538 N/A
3:35 am 03:35 Clear with Mist and Fog 57 13.7 55 12.8 94 94 Calm 30.03 1017 3 4.82802 N/A
3:55 am 03:55 Clear with Mist and Fog 58 14.2 56 13.5 96 96 Calm 30.03 1017 3 4.82802 N/A
4:15 am 04:15 Mostly Cloudy with Mist and Fog 57 14 56 13.3 96 96 Calm 30.03 1017 2.5 4.02335 N/A
4:35 am 04:35 Cloudy with Mist and Fog 59 14.9 58 14.2 96 96 Calm 30 1016 5 8.0467 N/A
4:55 am 04:55 Cloudy with Mist and Fog 60 15.4 59 14.8 96 96 SE 5 7 30 1016 5 8.0467 N/A
5:15 am 05:15 Cloudy 62 16.5 61 16 97 97 SSE 5 7 29.97 1015 7 11.26538 N/A
5:35 am 05:35 Cloudy with Mist and Fog 62 16.7 61 16 96 96 SE 3 6 29.97 1015 5 8.0467 N/A
5:55 am 05:55 Cloudy with Mist and Fog 63 17 61 16.3 96 96 SE 6 9 29.97 1015 5 8.0467 N/A
6:15 am 06:15 Cloudy with Mist and Fog 63 17.3 62 16.6 96 96 SE 3 6 29.97 1015 5 8.0467 N/A
6:35 am 06:35 Cloudy with Mist and Fog 63 17.3 62 16.6 96 96 Calm 29.97 1015 4 6.43736 N/A
6:55 am 06:55 Cloudy with Mist and Fog 64 17.5 62 16.7 95 95 SE 5 7 29.97 1015 4 6.43736 0 0
7:15 am 07:15 Cloudy with Mist and Fog 64 17.7 63 17 96 96 SE 3 6 29.97 1015 5 8.0467 N/A
7:35 am 07:35 Cloudy with Mist and Fog 64 18 63 17.1 95 95 SSE 6 9 29.97 1015 5 8.0467 N/A
7:55 am 07:55 Cloudy with Mist and Fog 65 18.2 63 17.3 95 95 SSE 7 11 29.97 1015 5 8.0467 N/A
8:15 am 08:15 Cloudy with Mist and Fog 65 18.5 64 17.5 94 94 S 9 15 29.97 1015 4 6.43736 N/A
8:35 am 08:35 Cloudy with Mist and Fog 65 18.6 64 17.6 94 94 S 12 19 29.97 1015 5 8.0467 N/A
8:55 am 08:55 Cloudy with Mist and Fog 66 18.7 64 17.7 94 94 S 9 15 29.97 1015 5 8.0467 N/A
9:15 am 09:15 Cloudy with Mist and Fog 66 19 64 18 94 94 S 10 17 29.97 1015 4 6.43736 N/A
9:35 am 09:35 Cloudy with Mist and Fog 67 19.2 65 18.2 94 94 SSE 10 17 29.97 1015 5 8.0467 N/A
9:55 am 09:55 Cloudy 67 19.7 65 18.2 91 91 SSE 12 19 29.97 1015 7 11.26538 N/A
10:15 am 10:15 Cloudy 68 20.1 65 18.6 91 91 SSE 13 20 29.97 1015 7 11.26538 N/A
10:35 am 10:35 Cloudy 68 20.2 65 18.5 90 90 S 12 19 29.97 1015 10 16.0934 N/A
10:55 am 10:55 Cloudy 69 20.5 65 18.6 89 89 S 13 20 29.94 1014 10 16.0934 N/A
11:15 am 11:15 Cloudy 70 21.2 66 19 87 87 S 14 22 29.94 1014 10 16.0934 N/A
11:35 am 11:35 Cloudy 72 22.1 66 19.1 83 83 S 12 19 29.94 1014 10 16.0934 N/A
11:55 am 11:55 Cloudy 72 22.2 66 19.1 83 83 S 14 22 29.94 1014 10 16.0934 N/A
12:15 pm 12:15 Cloudy 73 22.6 67 19.5 83 83 S 15 24 29.94 1014 10 16.0934 N/A
12:35 pm 12:35 Mostly Cloudy 74 23.1 67 19.5 80 80 S 13 20 29.94 1014 10 16.0934 N/A
12:55 pm 12:55 Mostly Cloudy 74 23.5 67 19.7 79 79 S 10 17 29.88 1012 10 16.0934 N/A
1:15 pm 13:15 Mostly Cloudy 76 24.5 69 20.5 78 78 S 9 15 29.88 1012 10 16.0934 N/A
1:35 pm 13:35 Mostly Cloudy 76 24.7 69 20.6 78 78 S 12 19 29.88 1012 10 16.0934 N/A
1:55 pm 13:55 Mostly Cloudy 77 25.1 69 20.6 76 76 SSE 13 20 29.85 1011 10 16.0934 N/A
2:15 pm 14:15 Partly Cloudy 78 25.4 70 21.1 77 77 SSE 14 22 29.85 1011 10 16.0934 N/A
2:35 pm 14:35 Partly Cloudy 78 25.7 70 21.1 76 76 SE 16 26 29.83 1010 10 16.0934 N/A
2:55 pm 14:55 Partly Cloudy 78 25.7 70 21.1 76 76 S 16 26 29.83 1010 10 16.0934 N/A
3:15 pm 15:15 Partly Cloudy 79 26.1 70 21.2 74 74 SSE 16 26 29.83 1010 10 16.0934 N/A
3:35 pm 15:35 Partly Cloudy 80 26.5 70 21 72 72 S 14 22 29.77 1008 10 16.0934 N/A
3:55 pm 15:55 Partly Cloudy 80 26.7 71 21.5 73 73 SSE 16 26 29.77 1008 10 16.0934 N/A
4:15 pm 16:15 Partly Cloudy 81 27.2 70 21.3 70 70 S 16 26 29.77 1008 10 16.0934 N/A
4:35 pm 16:35 Sunny 82 27.6 71 21.7 70 70 SSE 15 24 29.74 1007 10 16.0934 N/A
4:55 pm 16:55 Sunny 82 27.8 71 21.6 69 69 S 15 24 29.74 1007 10 16.0934 N/A
5:15 pm 17:15 Sunny 82 28 71 21.6 68 68 S 20 31 29.74 1007 10 16.0934 N/A
5:35 pm 17:35 Sunny 83 28.2 71 21.8 68 68 SSE 20 31 29.71 1006 10 16.0934 N/A
5:55 pm 17:55 Sunny 83 28.5 71 21.9 67 67 SSE 16 26 29.68 1005 10 16.0934 N/A
6:15 pm 18:15 Sunny 83 28.5 71 21.4 65 65 SSE 22 35 29.65 1004 7 11.26538 N/A
6:35 pm 18:35 Sunny 83 28.5 70 21.3 65 65 SSE 23 37 29.65 1004 10 16.0934 N/A
6:55 pm 18:55 Sunny 83 28.5 71 21.6 66 66 SSE 17 28 29.65 1004 10 16.0934 N/A
7:15 pm 19:15 Sunny 83 28.4 71 21.4 66 66 SSE 15 24 29.68 1005 10 16.0934 N/A
7:35 pm 19:35 Sunny 83 28.2 71 21.4 67 67 SSE 15 24 29.65 1004 7 11.26538 N/A
7:55 pm 19:55 Sunny 82 28 71 21.4 67 67 SSE 15 24 29.65 1004 10 16.0934 N/A
8:15 pm 20:15 Sunny 82 27.6 70 21.2 68 68 SSE 16 26 29.65 1004 10 16.0934 N/A
8:35 pm 20:35 Sunny 81 27.2 70 21.2 70 70 SSE 14 22 29.65 1004 10 16.0934 N/A
8:55 pm 20:55 Sunny 80 26.7 70 21.2 72 72 SSE 12 19 29.65 1004 10 16.0934 N/A
9:15 pm 21:15 Clear 79 26.1 70 21.1 74 74 SE 13 20 29.65 1004 10 16.0934 N/A
9:35 pm 21:35 Clear 78 25.8 70 21 75 75 SSE 12 19 29.65 1004 10 16.0934 N/A
9:55 pm 21:55 Clear 78 25.5 70 21 76 76 SE 12 19 29.65 1004 10 16.0934 N/A
10:15 pm 22:15 Clear 78 25.3 70 21 77 77 SE 13 20 29.65 1004 10 16.0934 N/A
10:35 pm 22:35 Clear 77 25 70 21 79 79 SSE 13 20 29.65 1004 10 16.0934 N/A
10:55 pm 22:55 Clear 76 24.7 70 21 80 80 SSE 14 22 29.65 1004 10 16.0934 N/A
11:15 pm 23:15 Clear 76 24.6 70 21.1 81 81 SSE 14 22 29.65 1004 10 16.0934 N/A
11:35 pm 23:35 Clear 76 24.5 70 21 81 81 SSE 13 20 29.65 1004 10 16.0934 N/A
11:55 pm 23:55 Clear 76 24.5 70 21 81 81 SSE 14 22 29.62 1003 10 16.0934 N/A

Powered by AerisWeather